ANZ103 NZAA-YSSY

Flight info

Callsign ANZ103
Flight time N/A
Altitude 36000
Route BATO4Q MADEP N774 MARLN MARLN5
Aircraft B77W/H-SDE1E2E3FGHIJ2J3J4J5M1RWXY/LB1D1

Departure

Time N/A
Airport Auckland International Airport (NZAA)

Arrival

Time 2026-04-30 19:39
Airport Sydney Kingsford Smith International Airport (YSSY)
Time Latitude Longitude Altitude Speed Heading
2026-04-30 17:39 -36.14324 167.53778 36524 ft 460 kts 275°
2026-04-30 17:42 -36.10879 167.15782 36530 ft 460 kts 276°
2026-04-30 17:43 -36.09051 166.96153 36529 ft 460 kts 276°
2026-04-30 17:44 -36.06818 166.72641 36527 ft 459 kts 276°
2026-04-30 17:47 -36.03379 166.37353 36523 ft 460 kts 276°
2026-04-30 17:48 -36.00633 166.09938 36510 ft 460 kts 276°
2026-04-30 17:50 -35.97411 165.78563 36524 ft 460 kts 276°
2026-04-30 17:52 -35.94952 165.55144 36506 ft 459 kts 277°
2026-04-30 17:54 -35.91180 165.20064 36511 ft 459 kts 277°
2026-04-30 17:56 -35.87732 164.88832 36505 ft 459 kts 277°
2026-04-30 17:58 -35.85099 164.65480 36508 ft 459 kts 277°
2026-04-30 18:00 -35.81516 164.34337 36502 ft 459 kts 277°
2026-04-30 18:01 -35.79237 164.14894 36508 ft 460 kts 277°
2026-04-30 18:02 -35.76449 163.91494 36504 ft 461 kts 277°
2026-04-30 18:04 -35.73609 163.68049 36501 ft 462 kts 277°
2026-04-30 18:06 -35.69761 163.36883 36503 ft 461 kts 277°
2026-04-30 18:08 -35.66326 163.09616 36499 ft 462 kts 278°
2026-04-30 18:10 -35.62297 162.78345 36486 ft 463 kts 278°
2026-04-30 18:11 -35.58703 162.51012 36497 ft 464 kts 277°
2026-04-30 18:13 -35.56097 162.31475 36489 ft 464 kts 278°
2026-04-30 18:14 -35.53454 162.11933 36496 ft 464 kts 278°
2026-04-30 18:15 -35.50256 161.88587 36484 ft 463 kts 278°
2026-04-30 18:16 -35.48094 161.73010 36486 ft 464 kts 278°
2026-04-30 18:17 -35.47002 161.65201 36486 ft 464 kts 278°
2026-04-30 18:18 -35.45357 161.53505 36487 ft 463 kts 278°
2026-04-30 18:18 -35.44256 161.45714 36480 ft 464 kts 278°
2026-04-30 18:19 -35.43146 161.37911 36497 ft 465 kts 278°
2026-04-30 18:19 -35.42031 161.30103 36480 ft 465 kts 278°
2026-04-30 18:20 -35.40909 161.22292 36489 ft 464 kts 278°
2026-04-30 18:20 -35.39794 161.14545 36476 ft 464 kts 278°
2026-04-30 18:21 -35.38665 161.06756 36475 ft 464 kts 279°
2026-04-30 18:21 -35.37532 160.98973 36486 ft 464 kts 279°
2026-04-30 18:22 -35.36393 160.91189 36491 ft 464 kts 279°
2026-04-30 18:22 -35.34673 160.79503 36485 ft 464 kts 278°
2026-04-30 18:23 -35.33531 160.71771 36471 ft 464 kts 279°
2026-04-30 18:23 -35.32377 160.64010 36485 ft 463 kts 278°
2026-04-30 18:24 -35.30630 160.52325 36479 ft 465 kts 278°
2026-04-30 18:25 -35.29458 160.44530 36471 ft 465 kts 279°
2026-04-30 18:25 -35.27696 160.32872 36471 ft 466 kts 279°
2026-04-30 18:26 -35.25916 160.21181 36473 ft 466 kts 278°
2026-04-30 18:27 -35.24125 160.09487 36475 ft 466 kts 279°
2026-04-30 18:28 -35.22520 159.99091 36483 ft 467 kts 279°
2026-04-30 18:28 -35.20703 159.87385 36485 ft 467 kts 278°
2026-04-30 18:29 -35.18264 159.71784 36473 ft 467 kts 279°
2026-04-30 18:30 -35.15814 159.56252 36472 ft 467 kts 279°
2026-04-30 18:31 -35.13950 159.44531 36467 ft 467 kts 279°
2026-04-30 18:32 -35.12084 159.32874 36473 ft 467 kts 279°
2026-04-30 18:33 -35.10203 159.21186 36466 ft 468 kts 279°
2026-04-30 18:33 -35.08308 159.09495 36465 ft 468 kts 279°
2026-04-30 18:34 -35.06398 158.97792 36468 ft 468 kts 279°
2026-04-30 18:35 -35.05120 158.89993 36465 ft 469 kts 279°
2026-04-30 18:35 -35.03843 158.82239 36455 ft 469 kts 279°
2026-04-30 18:36 -35.01908 158.70549 36465 ft 469 kts 279°
2026-04-30 18:37 -34.99960 158.58852 36469 ft 469 kts 279°
2026-04-30 18:37 -34.98655 158.51060 36470 ft 469 kts 279°
2026-04-30 18:38 -34.97346 158.43274 36471 ft 469 kts 279°
2026-04-30 18:38 -34.96030 158.35478 36467 ft 469 kts 279°
2026-04-30 18:39 -34.94710 158.27694 36468 ft 469 kts 279°
2026-04-30 18:39 -34.93387 158.19921 36461 ft 469 kts 279°
2026-04-30 18:40 -34.92066 158.12187 36461 ft 469 kts 279°
2026-04-30 18:40 -34.90730 158.04401 36468 ft 469 kts 279°
2026-04-30 18:41 -34.89387 157.96610 36466 ft 470 kts 279°
2026-04-30 18:41 -34.88047 157.88859 36467 ft 470 kts 279°
2026-04-30 18:42 -34.86692 157.81062 36463 ft 470 kts 279°
2026-04-30 18:42 -34.84650 157.69361 36462 ft 471 kts 279°
2026-04-30 18:45 -34.77057 157.26455 36464 ft 472 kts 280°
2026-04-30 18:46 -34.75656 157.18638 36449 ft 473 kts 280°
2026-04-30 18:46 -34.74251 157.10830 36457 ft 473 kts 280°
2026-04-30 18:47 -34.72842 157.03032 36458 ft 473 kts 280°
2026-04-30 18:47 -34.71434 156.95267 36455 ft 473 kts 280°
2026-04-30 18:48 -34.70013 156.87458 36445 ft 473 kts 280°
2026-04-30 18:48 -34.68585 156.79646 36452 ft 473 kts 280°
2026-04-30 18:49 -34.67150 156.71824 36454 ft 474 kts 280°
2026-04-30 18:49 -34.65710 156.64002 36453 ft 474 kts 280°
2026-04-30 18:50 -34.64271 156.56219 36443 ft 474 kts 280°
2026-04-30 18:50 -34.62821 156.48403 36448 ft 474 kts 280°
2026-04-30 18:51 -34.61364 156.40581 36451 ft 475 kts 280°
2026-04-30 18:51 -34.59911 156.32809 36447 ft 475 kts 280°
2026-04-30 18:52 -34.58443 156.24983 36434 ft 475 kts 281°
2026-04-30 18:52 -34.56969 156.17159 36443 ft 475 kts 281°
2026-04-30 18:53 -34.55503 156.09404 36442 ft 475 kts 281°
2026-04-30 18:53 -34.54021 156.01600 36440 ft 475 kts 281°
2026-04-30 18:54 -34.52535 155.93795 36441 ft 475 kts 281°
2026-04-30 18:54 -34.51043 155.85985 36438 ft 475 kts 281°
2026-04-30 18:55 -34.49551 155.78213 36439 ft 475 kts 281°
2026-04-30 18:55 -34.47295 155.66508 36437 ft 475 kts 281°
2026-04-30 18:56 -34.45029 155.54812 36428 ft 475 kts 281°
2026-04-30 18:57 -34.42759 155.43162 36431 ft 475 kts 281°
2026-04-30 18:57 -34.41232 155.35361 36428 ft 475 kts 281°
2026-04-30 18:58 -34.38939 155.23690 36428 ft 475 kts 281°
2026-04-30 18:59 -34.36961 155.11942 36432 ft 473 kts 275°
2026-04-30 19:00 -34.35403 154.96122 36424 ft 473 kts 275°
2026-04-30 19:01 -34.33770 154.80348 36429 ft 474 kts 275°
2026-04-30 19:02 -34.32516 154.68487 36429 ft 474 kts 275°
2026-04-30 19:03 -34.30828 154.52661 36423 ft 474 kts 275°
2026-04-30 19:04 -34.29127 154.36895 36430 ft 474 kts 275°
2026-04-30 19:05 -34.27396 154.21062 36418 ft 474 kts 276°
2026-04-30 19:06 -34.25652 154.05285 36422 ft 474 kts 276°
2026-04-30 19:06 -34.24326 153.93412 36421 ft 474 kts 276°
2026-04-30 19:07 -34.22997 153.81582 36420 ft 475 kts 276°
2026-04-30 19:08 -34.21222 153.65912 36370 ft 455 kts 276°
2026-04-30 19:08 -34.20793 153.62153 36043 ft 449 kts 276°
2026-04-30 19:09 -34.19946 153.54749 35221 ft 441 kts 276°
2026-04-30 19:09 -34.19525 153.51084 34789 ft 438 kts 276°
2026-04-30 19:09 -34.19107 153.47448 34346 ft 436 kts 276°
2026-04-30 19:10 -34.18277 153.40264 33385 ft 431 kts 276°
2026-04-30 19:10 -34.17450 153.33152 32498 ft 425 kts 276°
2026-04-30 19:11 -34.17038 153.29627 32064 ft 422 kts 276°
2026-04-30 19:11 -34.16221 153.22647 31214 ft 417 kts 276°
2026-04-30 19:11 -34.15813 153.19173 30780 ft 415 kts 276°
2026-04-30 19:12 -34.15408 153.15740 30337 ft 413 kts 276°
2026-04-30 19:12 -34.15004 153.12317 29841 ft 411 kts 276°
2026-04-30 19:12 -34.14601 153.08909 29385 ft 407 kts 277°
2026-04-30 19:13 -34.13804 153.02198 28510 ft 401 kts 277°
2026-04-30 19:13 -34.13018 152.95623 27657 ft 396 kts 277°
2026-04-30 19:13 -34.12619 152.92339 27236 ft 393 kts 277°
2026-04-30 19:14 -34.12220 152.89083 26824 ft 391 kts 277°
2026-04-30 19:14 -34.11822 152.85845 26407 ft 389 kts 277°
2026-04-30 19:14 -34.11425 152.82615 25992 ft 387 kts 278°
2026-04-30 19:14 -34.11029 152.79405 25581 ft 386 kts 278°
2026-04-30 19:15 -34.10636 152.76215 25169 ft 384 kts 278°
2026-04-30 19:15 -34.09980 152.70912 24476 ft 383 kts 278°
2026-04-30 19:15 -34.09587 152.67741 24053 ft 382 kts 278°
2026-04-30 19:16 -34.09067 152.63552 23431 ft 380 kts 278°
2026-04-30 19:16 -34.08674 152.60398 23004 ft 378 kts 278°
2026-04-30 19:16 -34.08032 152.55168 22293 ft 374 kts 277°
2026-04-30 19:17 -34.07725 152.52059 21884 ft 372 kts 276°
2026-04-30 19:17 -34.07181 152.45900 21078 ft 367 kts 276°
2026-04-30 19:17 -34.06912 152.42881 20673 ft 365 kts 276°
2026-04-30 19:18 -34.06448 152.37802 20000 ft 362 kts 276°
2026-04-30 19:18 -34.06077 152.33821 19464 ft 360 kts 275°
2026-04-30 19:18 -34.05796 152.30830 19063 ft 358 kts 276°
2026-04-30 19:19 -34.05515 152.27850 18641 ft 357 kts 275°
2026-04-30 19:19 -34.05235 152.24880 18174 ft 356 kts 275°
2026-04-30 19:19 -34.04676 152.19000 17350 ft 351 kts 276°
2026-04-30 19:20 -34.04399 152.16090 16949 ft 348 kts 276°
2026-04-30 19:20 -34.04123 152.13195 16553 ft 345 kts 276°
2026-04-30 19:20 -34.03577 152.07503 15777 ft 341 kts 276°
2026-04-30 19:21 -34.03300 152.04677 15396 ft 339 kts 276°
2026-04-30 19:21 -34.02728 151.99058 14628 ft 336 kts 277°
2026-04-30 19:22 -34.02160 151.93490 13828 ft 333 kts 277°
2026-04-30 19:22 -34.01317 151.85250 12648 ft 327 kts 277°
2026-04-30 19:23 -34.00485 151.77167 11531 ft 321 kts 278°
2026-04-30 19:24 -33.99942 151.71883 10807 ft 318 kts 278°
2026-04-30 19:24 -33.99674 151.69277 10658 ft 309 kts 278°
2026-04-30 19:24 -33.99160 151.64283 10289 ft 294 kts 278°
2026-04-30 19:25 -33.98402 151.56986 9323 ft 287 kts 278°
2026-04-30 19:26 -33.97917 151.52317 8958 ft 275 kts 279°
2026-04-30 19:26 -33.97439 151.47754 8629 ft 277 kts 279°
2026-04-30 19:26 -33.97196 151.45441 8458 ft 279 kts 278°
2026-04-30 19:27 -33.96713 151.40838 8106 ft 277 kts 278°
2026-04-30 19:27 -33.96233 151.36241 7743 ft 276 kts 278°
2026-04-30 19:28 -33.95994 151.33918 7342 ft 284 kts 278°
2026-04-30 19:28 -33.95515 151.29230 6810 ft 280 kts 279°
2026-04-30 19:29 -33.95046 151.24679 6424 ft 267 kts 278°
2026-04-30 19:29 -33.95141 151.22481 6242 ft 267 kts 251°
2026-04-30 19:30 -33.99679 151.19404 5764 ft 267 kts 167°
2026-04-30 19:30 -34.03323 151.20265 5423 ft 268 kts 166°
2026-04-30 19:31 -34.07002 151.21127 5090 ft 270 kts 167°
2026-04-30 19:31 -34.08845 151.21555 4900 ft 267 kts 167°
2026-04-30 19:31 -34.12423 151.22377 4569 ft 258 kts 167°
2026-04-30 19:32 -34.14183 151.22780 4400 ft 257 kts 167°
2026-04-30 19:32 -34.15916 151.23178 4247 ft 256 kts 167°
2026-04-30 19:32 -34.17667 151.23556 4080 ft 254 kts 173°
2026-04-30 19:32 -34.19411 151.23214 3909 ft 261 kts 207°
2026-04-30 19:33 -34.20764 151.21767 3779 ft 264 kts 239°
2026-04-30 19:33 -34.21331 151.19688 3591 ft 261 kts 270°
2026-04-30 19:33 -34.20977 151.17577 3424 ft 256 kts 300°
2026-04-30 19:33 -34.19828 151.15991 3261 ft 251 kts 328°
2026-04-30 19:34 -34.18253 151.15254 3117 ft 240 kts 360°
2026-04-30 19:34 -34.16707 151.15713 3023 ft 222 kts 25°
2026-04-30 19:34 -34.14109 151.17022 3001 ft 186 kts 21°
2026-04-30 19:35 -34.12899 151.17562 2671 ft 188 kts 20°
2026-04-30 19:35 -34.11649 151.18099 2318 ft 190 kts 19°
2026-04-30 19:35 -34.10402 151.18629 1968 ft 189 kts 19°
2026-04-30 19:35 -34.09214 151.19142 1879 ft 170 kts 21°
2026-04-30 19:36 -34.08225 151.19741 1855 ft 152 kts 38°
2026-04-30 19:36 -34.07461 151.20611 1893 ft 151 kts 35°
2026-04-30 19:36 -34.05542 151.20426 1890 ft 150 kts 344°
2026-04-30 19:37 -34.04508 151.20203 1670 ft 150 kts 349°
2026-04-30 19:37 -34.03496 151.19921 1451 ft 148 kts 347°
2026-04-30 19:37 -34.02500 151.19652 1259 ft 146 kts 348°
2026-04-30 19:37 -34.01508 151.19391 1071 ft 146 kts 348°
2026-04-30 19:38 -34.00511 151.19131 881 ft 147 kts 348°
2026-04-30 19:38 -33.99518 151.18872 684 ft 144 kts 347°
2026-04-30 19:38 -33.98546 151.18619 500 ft 142 kts 347°
2026-04-30 19:38 -33.97574 151.18366 319 ft 143 kts 347°
2026-04-30 19:39 -33.96613 151.18115 138 ft 143 kts 348°
2026-04-30 19:39 -33.95653 151.17865 34 ft 133 kts 348°
2026-04-30 19:39 -33.94987 151.17691 33 ft 57 kts 348°
2026-04-30 19:39 -33.94661 151.17603 35 ft 35 kts 341°
2026-04-30 19:40 -33.94452 151.17489 35 ft 32 kts 327°
2026-04-30 19:40 -33.94302 151.17331 35 ft 25 kts 321°
2026-04-30 19:40 -33.94159 151.17273 33 ft 13 kts 346°
2026-04-30 19:40 -33.94079 151.17252 34 ft 9 kts 349°
2026-04-30 19:41 -33.94019 151.17238 34 ft 9 kts 348°
2026-04-30 19:41 -33.93977 151.17193 34 ft 9 kts 274°
2026-04-30 19:41 -33.93996 151.17121 34 ft 9 kts 252°
2026-04-30 19:41 -33.94015 151.17045 34 ft 10 kts 253°
2026-04-30 19:42 -33.94033 151.16965 35 ft 10 kts 255°
2026-04-30 19:42 -33.94051 151.16885 35 ft 10 kts 255°
2026-04-30 19:42 -33.94043 151.16805 35 ft 10 kts 296°
2026-04-30 19:42 -33.94006 151.16733 35 ft 10 kts 302°
2026-04-30 19:43 -33.93982 151.16689 35 ft 3 kts 303°
2026-04-30 19:43 -33.93977 151.16679 35 ft 0 kts 303°